Tracking 23731 objects as of 27-Sep-2021
HD Live streaming from Space Station
objects crossing your sky now

STARLINK-2188

Track STARLINK-2188 now!
10-day predictions
STARLINK-2188 is classified as:


NORAD ID: 48563
Int'l Code: 2021-041L
Perigee: 553.3 km
Apogee: 555.4 km
Inclination: 53.1 °
Period: 95.6 minutes
Semi major axis: 6925 km
RCS: Unknown
Launch date: May 15, 2021
Source: United States (US)
Launch site: AIR FORCE EASTERN TEST RANGE (AFETR)
aabbcc
Your satellite tracking list
Your tracking list is empty




NASA's NSSDC Master Catalog

Two Line Element Set (TLE):
1 48563U 21041L   21270.59484966  .00001673  00000-0  13117-3 0  9990
2 48563  53.0564 222.4653 0001475  49.0134 311.0982 15.06400911 20411
Source of the keplerian elements: AFSPC